COSMOS 2256

Satellite information

Favourite Embed

Satellite Type and Status

PAYLOADIN ORBIT

Key statistics

Satellite COSMOS 2256 at a glance.

Uptime

11814

Days in orbit

Revolutions

≈ 12.6

Per day

Orbit

LEO

Low Earth Orbit

Inclination

82.6

Latest

Satellite identification and parameters

Extended collection of information and parameters for COSMOS 2256.

Object identification

Identified? True

Debris? False

Object name: COSMOS 2256

International designator: 1993-038E

Object number (NORAD): 22691

Object ID (CCSDS): 22691

Country: COMMONWEALTH OF INDEPENDENT STATES (CIS)

Current information (Y/N): Y

RCS size: LARGE

Orbital parameters

Period: 113.929 minutes

Inclination: 82.5794 deg

SMA: 7784.863 km

Apoapsis: 1412.783 km

Periapsis: 1400.672 km

RAAN: 0.4007 deg

Eccentricy: 0.0007779

Argument of periapsis: 147.8307 deg

Mean anomaly: 25.3124 deg

Mean motion: 12.6393965 rev/day

Mean motion (dot): 0.00000023 rev/day2

B* drag term: 0.000066017416 1/REarth

Two-line elements (TLE)

Creation date: Oct. 28, 2025, 2:18 a.m.

Reference frame: TEME

Reference center: EARTH

Epoch: Oct. 27, 2025, 10:20 p.m. UTC

TLE line 0: 0 COSMOS 2256

TLE line 1: 1 22691U 93038E 25300.93083034 .00000023 00000-0 66017-4 0 9992

TLE line 2: 2 22691 82.5794 0.4007 0007779 147.8307 25.3124 12.63939650492475

Live tracking on map

Real-time ground track for satellite COSMOS 2256.

In-orbit conjunctions

There are no conjunctions computed for COSMOS 2256, at the moment. Check back to stay up to date, as we update our databases every day.

Go to all conjunctions

Associated space launch

Second generation store-dump military communications satellites

COSMOS 2256 was lifted into orbit during the mission ‘Tsiklon-3 | Strela-3 95 to 100’, on board a Tsiklon-3 space rocket.

The launch took place on June 24, 1993, 4:12 a.m. from 32/1.

For more information about the launch, click the button.

Launch to space Tsiklon-3 | Strela-3 95 to 100
Tsiklon-3 | Strela-3 95 to 100

Agency: N/A

Status: Launch Successful

Launch date: June 24, 1993, 4:12 a.m. UTC

Rocket: Tsiklon-3

Launch pad: 32/1

Location: Plesetsk Cosmodrome, Russian Federation

...

Latest news about this satellite

There are no fresh news available about this satellite. Check back as we update our databases every day.


Newsletter sign-up

Weekly statistics, charts and insights to help you stay on top of the space industry.